GIORNO;ORA solare;Livello P. Salute Canal Grande (m)
01/01/2019;01:00;-0.08
01/01/2019;02:00;-0.01
01/01/2019;03:00;0.14
01/01/2019;04:00;0.27
01/01/2019;05:00;0.37
01/01/2019;06:00;0.44
01/01/2019;07:00;0.46
01/01/2019;08:00;0.40
01/01/2019;09:00;0.29
01/01/2019;10:00;0.16
01/01/2019;11:00;0.01
01/01/2019;12:00;-0.13
01/01/2019;13:00;-0.25
01/01/2019;14:00;-0.34
01/01/2019;15:00;-0.35
01/01/2019;16:00;-0.30
01/01/2019;17:00;-0.19
01/01/2019;18:00;-0.04
01/01/2019;19:00;0.09
01/01/2019;20:00;0.17
01/01/2019;21:00;0.22
01/01/2019;22:00;0.21
01/01/2019;23:00;0.16
02/01/2019;00:00;0.10
02/01/2019;01:00;0.07
02/01/2019;02:00;0.10
02/01/2019;03:00;0.18
02/01/2019;04:00;0.29
02/01/2019;05:00;0.40
02/01/2019;06:00;0.50
02/01/2019;07:00;0.55
02/01/2019;08:00;0.58
02/01/2019;09:00;0.51
02/01/2019;10:00;0.38
02/01/2019;11:00;0.21
02/01/2019;12:00;0.02
02/01/2019;13:00;-0.16
02/01/2019;14:00;-0.31
02/01/2019;15:00;-0.40
02/01/2019;16:00;-0.42
02/01/2019;17:00;-0.31
02/01/2019;18:00;-0.15
02/01/2019;19:00;0.01
02/01/2019;20:00;0.17
02/01/2019;21:00;0.28
02/01/2019;22:00;0.31
02/01/2019;23:00;0.25
03/01/2019;00:00;0.16
03/01/2019;01:00;0.11
03/01/2019;02:00;0.04
03/01/2019;03:00;0.04
03/01/2019;04:00;0.14
03/01/2019;05:00;0.22
03/01/2019;06:00;0.30
03/01/2019;07:00;0.43
03/01/2019;08:00;0.52
03/01/2019;09:00;0.48
03/01/2019;10:00;0.38
03/01/2019;11:00;0.23
03/01/2019;12:00;0.07
03/01/2019;13:00;-0.12
03/01/2019;14:00;-0.30
03/01/2019;15:00;-0.42
03/01/2019;16:00;-0.48
03/01/2019;17:00;-0.44
03/01/2019;18:00;-0.26
03/01/2019;19:00;-0.06
03/01/2019;20:00;0.11
03/01/2019;21:00;0.26
03/01/2019;22:00;0.34
03/01/2019;23:00;0.35
04/01/2019;00:00;0.28
04/01/2019;01:00;0.17
04/01/2019;02:00;0.05
04/01/2019;03:00;0.03
04/01/2019;04:00;0.10
04/01/2019;05:00;0.20
04/01/2019;06:00;0.33
04/01/2019;07:00;0.47
04/01/2019;08:00;0.55
04/01/2019;09:00;0.59
04/01/2019;10:00;0.54
04/01/2019;11:00;0.40
04/01/2019;12:00;0.19
04/01/2019;13:00;-0.04
04/01/2019;14:00;-0.24
04/01/2019;15:00;-0.39
04/01/2019;16:00;-0.46
04/01/2019;17:00;-0.40
04/01/2019;18:00;-0.22
04/01/2019;19:00;-0.03
04/01/2019;20:00;0.13
04/01/2019;21:00;0.27
04/01/2019;22:00;0.35
04/01/2019;23:00;0.35
05/01/2019;00:00;0.31
05/01/2019;01:00;0.22
05/01/2019;02:00;0.11
05/01/2019;03:00;0.03
05/01/2019;04:00;0.02
05/01/2019;05:00;0.09
05/01/2019;06:00;0.21
05/01/2019;07:00;0.35
05/01/2019;08:00;0.47
05/01/2019;09:00;0.53
05/01/2019;10:00;0.52
05/01/2019;11:00;0.44
05/01/2019;12:00;0.27
05/01/2019;13:00;0.09
05/01/2019;14:00;-0.08
05/01/2019;15:00;-0.24
05/01/2019;16:00;-0.34
05/01/2019;17:00;-0.36
05/01/2019;18:00;-0.27
05/01/2019;19:00;-0.10
05/01/2019;20:00;0.07
05/01/2019;21:00;0.24
05/01/2019;22:00;0.36
05/01/2019;23:00;0.44
06/01/2019;00:00;0.45
06/01/2019;01:00;0.39
06/01/2019;02:00;0.24
06/01/2019;03:00;0.11
06/01/2019;04:00;0.03
06/01/2019;05:00;0.01
06/01/2019;06:00;0.07
06/01/2019;07:00;0.19
06/01/2019;08:00;0.33
06/01/2019;09:00;0.45
06/01/2019;10:00;0.51
06/01/2019;11:00;0.50
06/01/2019;12:00;0.37
06/01/2019;13:00;0.21
06/01/2019;14:00;0.01
06/01/2019;15:00;-0.17
06/01/2019;16:00;-0.32
06/01/2019;17:00;-0.40
06/01/2019;18:00;-0.34
06/01/2019;19:00;-0.15
06/01/2019;20:00;0.06
06/01/2019;21:00;0.25
06/01/2019;22:00;0.40
06/01/2019;23:00;0.50
07/01/2019;00:00;0.52
07/01/2019;01:00;0.47
07/01/2019;02:00;0.34
07/01/2019;03:00;0.19
07/01/2019;04:00;0.08
07/01/2019;05:00;0.05
07/01/2019;06:00;0.09
07/01/2019;07:00;0.20
07/01/2019;08:00;0.34
07/01/2019;09:00;0.46
07/01/2019;10:00;0.53
07/01/2019;11:00;0.54
07/01/2019;12:00;0.44
07/01/2019;13:00;0.27
07/01/2019;14:00;0.08
07/01/2019;15:00;-0.11
07/01/2019;16:00;-0.28
07/01/2019;17:00;-0.38
07/01/2019;18:00;-0.39
07/01/2019;19:00;-0.30
07/01/2019;20:00;-0.10
07/01/2019;21:00;0.10
07/01/2019;22:00;0.25
07/01/2019;23:00;0.37
08/01/2019;00:00;0.44
08/01/2019;01:00;0.44
08/01/2019;02:00;0.37
08/01/2019;03:00;0.26
08/01/2019;04:00;0.16
08/01/2019;05:00;0.09
08/01/2019;06:00;0.10
08/01/2019;07:00;0.17
08/01/2019;08:00;0.30
08/01/2019;09:00;0.43
08/01/2019;10:00;0.54
08/01/2019;11:00;0.60
08/01/2019;12:00;0.58
08/01/2019;13:00;0.46
08/01/2019;14:00;0.29
08/01/2019;15:00;0.10
08/01/2019;16:00;-0.07
08/01/2019;17:00;-0.19
08/01/2019;18:00;-0.23
08/01/2019;19:00;-0.15
08/01/2019;20:00;0.00
08/01/2019;21:00;0.17
08/01/2019;22:00;0.34
08/01/2019;23:00;0.49
09/01/2019;00:00;0.59
09/01/2019;01:00;0.64
09/01/2019;02:00;0.61
09/01/2019;03:00;0.49
09/01/2019;04:00;0.37
09/01/2019;05:00;0.28
09/01/2019;06:00;0.23
09/01/2019;07:00;0.25
09/01/2019;08:00;0.35
09/01/2019;09:00;0.47
09/01/2019;10:00;0.58
09/01/2019;11:00;0.66
09/01/2019;12:00;0.67
09/01/2019;13:00;0.57
09/01/2019;14:00;0.42
09/01/2019;15:00;0.27
09/01/2019;16:00;0.08
09/01/2019;17:00;-0.06
09/01/2019;18:00;-0.13
09/01/2019;19:00;-0.14
09/01/2019;20:00;-0.05
09/01/2019;21:00;0.12
09/01/2019;22:00;0.28
09/01/2019;23:00;0.41
10/01/2019;00:00;0.50
10/01/2019;01:00;0.56
10/01/2019;02:00;0.54
10/01/2019;03:00;0.47
10/01/2019;04:00;0.36
10/01/2019;05:00;0.25
10/01/2019;06:00;0.18
10/01/2019;07:00;0.18
10/01/2019;08:00;0.23
10/01/2019;09:00;0.33
10/01/2019;10:00;0.46
10/01/2019;11:00;0.54
10/01/2019;12:00;0.57
10/01/2019;13:00;0.57
10/01/2019;14:00;0.46
10/01/2019;15:00;0.30
10/01/2019;16:00;0.15
10/01/2019;17:00;0.01
10/01/2019;18:00;-0.08
10/01/2019;19:00;-0.12
10/01/2019;20:00;-0.11
10/01/2019;21:00;-0.03
10/01/2019;22:00;0.10
10/01/2019;23:00;0.23
11/01/2019;00:00;0.34
11/01/2019;01:00;0.44
11/01/2019;02:00;0.48
11/01/2019;03:00;0.50
11/01/2019;04:00;0.46
11/01/2019;05:00;0.38
11/01/2019;06:00;0.29
11/01/2019;07:00;0.23
11/01/2019;08:00;0.23
11/01/2019;09:00;0.29
11/01/2019;10:00;0.39
11/01/2019;11:00;0.48
11/01/2019;12:00;0.54
11/01/2019;13:00;0.55
11/01/2019;14:00;0.48
11/01/2019;15:00;0.35
11/01/2019;16:00;0.19
11/01/2019;17:00;0.04
11/01/2019;18:00;-0.09
11/01/2019;19:00;-0.17
11/01/2019;20:00;-0.20
11/01/2019;21:00;-0.13
11/01/2019;22:00;-0.01
11/01/2019;23:00;0.12
12/01/2019;00:00;0.25
12/01/2019;01:00;0.37
12/01/2019;02:00;0.45
12/01/2019;03:00;0.47
12/01/2019;04:00;0.43
12/01/2019;05:00;0.35
12/01/2019;06:00;0.25
12/01/2019;07:00;0.18
12/01/2019;08:00;0.13
12/01/2019;09:00;0.14
12/01/2019;10:00;0.22
12/01/2019;11:00;0.31
12/01/2019;12:00;0.38
12/01/2019;13:00;0.41
12/01/2019;14:00;0.37
12/01/2019;15:00;0.27
12/01/2019;16:00;0.15
12/01/2019;17:00;0.02
12/01/2019;18:00;-0.07
12/01/2019;19:00;-0.14
12/01/2019;20:00;-0.14
12/01/2019;21:00;-0.08
12/01/2019;22:00;0.02
12/01/2019;23:00;0.15
13/01/2019;00:00;0.28
13/01/2019;01:00;0.40
13/01/2019;02:00;0.50
13/01/2019;03:00;0.57
13/01/2019;04:00;0.60
13/01/2019;05:00;0.56
13/01/2019;06:00;0.51
13/01/2019;07:00;0.42
13/01/2019;08:00;0.36
13/01/2019;09:00;0.31
13/01/2019;10:00;0.30
13/01/2019;11:00;0.31
13/01/2019;12:00;0.33
13/01/2019;13:00;0.35
13/01/2019;14:00;0.34
13/01/2019;15:00;0.29
13/01/2019;16:00;0.23
13/01/2019;17:00;0.16
13/01/2019;18:00;0.09
13/01/2019;19:00;0.03
13/01/2019;20:00;0.01
13/01/2019;21:00;0.06
13/01/2019;22:00;0.12
13/01/2019;23:00;0.23
14/01/2019;00:00;0.36
14/01/2019;01:00;0.49
14/01/2019;02:00;0.61
14/01/2019;03:00;0.72
14/01/2019;04:00;0.79
14/01/2019;05:00;0.81
14/01/2019;06:00;0.78
14/01/2019;07:00;0.71
14/01/2019;08:00;0.60
14/01/2019;09:00;0.50
14/01/2019;10:00;0.41
14/01/2019;11:00;0.34
14/01/2019;12:00;0.30
14/01/2019;13:00;0.29
14/01/2019;14:00;0.27
14/01/2019;15:00;0.25
14/01/2019;16:00;0.21
14/01/2019;17:00;0.17
14/01/2019;18:00;0.11
14/01/2019;19:00;0.05
14/01/2019;20:00;0.05
14/01/2019;21:00;0.07
14/01/2019;22:00;0.14
14/01/2019;23:00;0.23
15/01/2019;00:00;0.32
15/01/2019;01:00;0.44
15/01/2019;02:00;0.55
15/01/2019;03:00;0.65
15/01/2019;04:00;0.73
15/01/2019;05:00;0.77
15/01/2019;06:00;0.77
15/01/2019;07:00;0.68
15/01/2019;08:00;0.54
15/01/2019;09:00;0.40
15/01/2019;10:00;0.26
15/01/2019;11:00;0.12
15/01/2019;12:00;0.02
15/01/2019;13:00;-0.02
15/01/2019;14:00;-0.06
15/01/2019;15:00;-0.05
15/01/2019;16:00;0.01
15/01/2019;17:00;0.05
15/01/2019;18:00;0.12
15/01/2019;19:00;0.19
15/01/2019;20:00;0.24
15/01/2019;21:00;0.28
15/01/2019;22:00;0.30
15/01/2019;23:00;0.34
16/01/2019;00:00;0.40
16/01/2019;01:00;0.46
16/01/2019;02:00;0.52
16/01/2019;03:00;0.59
16/01/2019;04:00;0.65
16/01/2019;05:00;0.68
16/01/2019;06:00;0.68
16/01/2019;07:00;0.64
16/01/2019;08:00;0.55
16/01/2019;09:00;0.45
16/01/2019;10:00;0.29
16/01/2019;11:00;0.14
16/01/2019;12:00;-0.01
16/01/2019;13:00;-0.13
16/01/2019;14:00;-0.20
16/01/2019;15:00;-0.18
16/01/2019;16:00;-0.07
16/01/2019;17:00;0.07
16/01/2019;18:00;0.22
16/01/2019;19:00;0.35
16/01/2019;20:00;0.44
16/01/2019;21:00;0.50
16/01/2019;22:00;0.50
16/01/2019;23:00;0.46
17/01/2019;00:00;0.39
17/01/2019;01:00;0.36
17/01/2019;02:00;0.39
17/01/2019;03:00;0.48
17/01/2019;04:00;0.59
17/01/2019;05:00;0.69
17/01/2019;06:00;0.77
17/01/2019;07:00;0.78
17/01/2019;08:00;0.72
17/01/2019;09:00;0.59
17/01/2019;10:00;0.43
17/01/2019;11:00;0.26
17/01/2019;12:00;0.09
17/01/2019;13:00;-0.05
17/01/2019;14:00;-0.12
17/01/2019;15:00;-0.11
17/01/2019;16:00;0.01
17/01/2019;17:00;0.18
17/01/2019;18:00;0.36
17/01/2019;19:00;0.53
17/01/2019;20:00;0.65
17/01/2019;21:00;0.72
17/01/2019;22:00;0.72
17/01/2019;23:00;0.66
18/01/2019;00:00;0.56
18/01/2019;01:00;0.48
18/01/2019;02:00;0.44
18/01/2019;03:00;0.47
18/01/2019;04:00;0.55
18/01/2019;05:00;0.63
18/01/2019;06:00;0.71
18/01/2019;07:00;0.75
18/01/2019;08:00;0.76
18/01/2019;09:00;0.67
18/01/2019;10:00;0.53
18/01/2019;11:00;0.37
18/01/2019;12:00;0.19
18/01/2019;13:00;0.04
18/01/2019;14:00;-0.10
18/01/2019;15:00;-0.15
18/01/2019;16:00;-0.07
18/01/2019;17:00;0.08
18/01/2019;18:00;0.23
18/01/2019;19:00;0.41
18/01/2019;20:00;0.56
18/01/2019;21:00;0.65
18/01/2019;22:00;0.68
18/01/2019;23:00;0.63
19/01/2019;00:00;0.52
19/01/2019;01:00;0.38
19/01/2019;02:00;0.30
19/01/2019;03:00;0.26
19/01/2019;04:00;0.29
19/01/2019;05:00;0.37
19/01/2019;06:00;0.48
19/01/2019;07:00;0.59
19/01/2019;08:00;0.67
19/01/2019;09:00;0.71
19/01/2019;10:00;0.68
19/01/2019;11:00;0.55
19/01/2019;12:00;0.38
19/01/2019;13:00;0.19
19/01/2019;14:00;0.02
19/01/2019;15:00;-0.13
19/01/2019;16:00;-0.19
19/01/2019;17:00;-0.14
19/01/2019;18:00;0.01
19/01/2019;19:00;0.21
19/01/2019;20:00;0.39
19/01/2019;21:00;0.53
19/01/2019;22:00;0.62
19/01/2019;23:00;0.65
20/01/2019;00:00;0.57
20/01/2019;01:00;0.43
20/01/2019;02:00;0.30
20/01/2019;03:00;0.20
20/01/2019;04:00;0.16
20/01/2019;05:00;0.21
20/01/2019;06:00;0.34
20/01/2019;07:00;0.49
20/01/2019;08:00;0.62
20/01/2019;09:00;0.72
20/01/2019;10:00;0.76
20/01/2019;11:00;0.71
20/01/2019;12:00;0.55
20/01/2019;13:00;0.36
20/01/2019;14:00;0.14
20/01/2019;15:00;-0.06
20/01/2019;16:00;-0.20
20/01/2019;17:00;-0.25
20/01/2019;18:00;-0.18
20/01/2019;19:00;0.02
20/01/2019;20:00;0.23
20/01/2019;21:00;0.41
20/01/2019;22:00;0.54
20/01/2019;23:00;0.61
21/01/2019;00:00;0.58
21/01/2019;01:00;0.46
21/01/2019;02:00;0.30
21/01/2019;03:00;0.17
21/01/2019;04:00;0.08
21/01/2019;05:00;0.09
21/01/2019;06:00;0.20
21/01/2019;07:00;0.36
21/01/2019;08:00;0.54
21/01/2019;09:00;0.68
21/01/2019;10:00;0.78
21/01/2019;11:00;0.80
21/01/2019;12:00;0.72
21/01/2019;13:00;0.55
21/01/2019;14:00;0.32
21/01/2019;15:00;0.09
21/01/2019;16:00;-0.10
21/01/2019;17:00;-0.24
21/01/2019;18:00;-0.26
21/01/2019;19:00;-0.14
21/01/2019;20:00;0.07
21/01/2019;21:00;0.28
21/01/2019;22:00;0.46
21/01/2019;23:00;0.59
22/01/2019;00:00;0.66
22/01/2019;01:00;0.62
22/01/2019;02:00;0.49
22/01/2019;03:00;0.34
22/01/2019;04:00;0.24
22/01/2019;05:00;0.19
22/01/2019;06:00;0.24
22/01/2019;07:00;0.38
22/01/2019;08:00;0.55
22/01/2019;09:00;0.71
22/01/2019;10:00;0.84
22/01/2019;11:00;0.91
22/01/2019;12:00;0.90
22/01/2019;13:00;0.78
22/01/2019;14:00;0.58
22/01/2019;15:00;0.37
22/01/2019;16:00;0.16
22/01/2019;17:00;-0.02
22/01/2019;18:00;-0.11
22/01/2019;19:00;-0.10
22/01/2019;20:00;0.05
22/01/2019;21:00;0.26
22/01/2019;22:00;0.45
22/01/2019;23:00;0.61
23/01/2019;00:00;0.72
23/01/2019;01:00;0.76
23/01/2019;02:00;0.69
23/01/2019;03:00;0.55
23/01/2019;04:00;0.40
23/01/2019;05:00;0.29
23/01/2019;06:00;0.23
23/01/2019;07:00;0.27
23/01/2019;08:00;0.39
23/01/2019;09:00;0.55
23/01/2019;10:00;0.70
23/01/2019;11:00;0.80
23/01/2019;12:00;0.85
23/01/2019;13:00;0.81
23/01/2019;14:00;0.67
23/01/2019;15:00;0.47
23/01/2019;16:00;0.26
23/01/2019;17:00;0.05
23/01/2019;18:00;-0.09
23/01/2019;19:00;-0.15
23/01/2019;20:00;-0.08
23/01/2019;21:00;0.11
23/01/2019;22:00;0.31
23/01/2019;23:00;0.50
24/01/2019;00:00;0.64
24/01/2019;01:00;0.74
24/01/2019;02:00;0.75
24/01/2019;03:00;0.68
24/01/2019;04:00;0.53
24/01/2019;05:00;0.37
24/01/2019;06:00;0.27
24/01/2019;07:00;0.24
24/01/2019;08:00;0.32
24/01/2019;09:00;0.47
24/01/2019;10:00;0.64
24/01/2019;11:00;0.76
24/01/2019;12:00;0.82
24/01/2019;13:00;0.79
24/01/2019;14:00;0.69
24/01/2019;15:00;0.53
24/01/2019;16:00;0.33
24/01/2019;17:00;0.16
24/01/2019;18:00;0.04
24/01/2019;19:00;-0.03
24/01/2019;20:00;0.01
24/01/2019;21:00;0.15
24/01/2019;22:00;0.34
24/01/2019;23:00;0.52
25/01/2019;00:00;0.66
25/01/2019;01:00;0.78
25/01/2019;02:00;0.84
25/01/2019;03:00;0.83
25/01/2019;04:00;0.74
25/01/2019;05:00;0.61
25/01/2019;06:00;0.49
25/01/2019;07:00;0.37
25/01/2019;08:00;0.30
25/01/2019;09:00;0.34
25/01/2019;10:00;0.42
25/01/2019;11:00;0.50
25/01/2019;12:00;0.59
25/01/2019;13:00;0.63
25/01/2019;14:00;0.58
25/01/2019;15:00;0.46
25/01/2019;16:00;0.31
25/01/2019;17:00;0.15
25/01/2019;18:00;0.02
25/01/2019;19:00;-0.03
25/01/2019;20:00;-0.03
25/01/2019;21:00;0.05
25/01/2019;22:00;0.20
25/01/2019;23:00;0.39
26/01/2019;00:00;0.53
26/01/2019;01:00;0.64
26/01/2019;02:00;0.73
26/01/2019;03:00;0.76
26/01/2019;04:00;0.68
26/01/2019;05:00;0.57
26/01/2019;06:00;0.44
26/01/2019;07:00;0.31
26/01/2019;08:00;0.21
26/01/2019;09:00;0.18
26/01/2019;10:00;0.21
26/01/2019;11:00;0.27
26/01/2019;12:00;0.33
26/01/2019;13:00;0.36
26/01/2019;14:00;0.34
26/01/2019;15:00;0.28
26/01/2019;16:00;0.22
26/01/2019;17:00;0.17
26/01/2019;18:00;0.11
26/01/2019;19:00;0.09
26/01/2019;20:00;0.10
26/01/2019;21:00;0.17
26/01/2019;22:00;0.27
26/01/2019;23:00;0.39
27/01/2019;00:00;0.52
27/01/2019;01:00;0.65
27/01/2019;02:00;0.76
27/01/2019;03:00;0.81
27/01/2019;04:00;0.80
27/01/2019;05:00;0.72
27/01/2019;06:00;0.61
27/01/2019;07:00;0.50
27/01/2019;08:00;0.41
27/01/2019;09:00;0.37
27/01/2019;10:00;0.34
27/01/2019;11:00;0.35
27/01/2019;12:00;0.40
27/01/2019;13:00;0.45
27/01/2019;14:00;0.48
27/01/2019;15:00;0.51
27/01/2019;16:00;0.52
27/01/2019;17:00;0.49
27/01/2019;18:00;0.45
27/01/2019;19:00;0.44
27/01/2019;20:00;0.45
27/01/2019;21:00;0.45
27/01/2019;22:00;0.51
27/01/2019;23:00;0.62
28/01/2019;00:00;0.72
28/01/2019;01:00;0.81
28/01/2019;02:00;0.89
28/01/2019;03:00;0.93
28/01/2019;04:00;0.92
28/01/2019;05:00;0.87
28/01/2019;06:00;0.83
28/01/2019;07:00;0.75
28/01/2019;08:00;0.64
28/01/2019;09:00;0.56
28/01/2019;10:00;0.49
28/01/2019;11:00;0.43
28/01/2019;12:00;0.41
28/01/2019;13:00;0.42
28/01/2019;14:00;0.43
28/01/2019;15:00;0.43
28/01/2019;16:00;0.46
28/01/2019;17:00;0.49
28/01/2019;18:00;0.51
28/01/2019;19:00;0.53
28/01/2019;20:00;0.52
28/01/2019;21:00;0.52
28/01/2019;22:00;0.48
28/01/2019;23:00;0.44
29/01/2019;00:00;0.44
29/01/2019;01:00;0.50
29/01/2019;02:00;0.58
29/01/2019;03:00;0.67
29/01/2019;04:00;0.75
29/01/2019;05:00;0.80
29/01/2019;06:00;0.78
29/01/2019;07:00;0.70
29/01/2019;08:00;0.60
29/01/2019;09:00;0.50
29/01/2019;10:00;0.41
29/01/2019;11:00;0.34
29/01/2019;12:00;0.29
29/01/2019;13:00;0.28
29/01/2019;14:00;0.29
29/01/2019;15:00;0.31
29/01/2019;16:00;0.35
29/01/2019;17:00;0.40
29/01/2019;18:00;0.46
29/01/2019;19:00;0.50
29/01/2019;20:00;0.54
29/01/2019;21:00;0.55
29/01/2019;22:00;0.53
29/01/2019;23:00;0.50
30/01/2019;00:00;0.50
30/01/2019;01:00;0.52
30/01/2019;02:00;0.57
30/01/2019;03:00;0.63
30/01/2019;04:00;0.71
30/01/2019;05:00;0.76
30/01/2019;06:00;0.79
30/01/2019;07:00;0.79
30/01/2019;08:00;0.74
30/01/2019;09:00;0.64
30/01/2019;10:00;0.54
30/01/2019;11:00;0.43
30/01/2019;12:00;0.32
30/01/2019;13:00;0.22
30/01/2019;14:00;0.17
30/01/2019;15:00;0.18
30/01/2019;16:00;0.24
30/01/2019;17:00;0.33
30/01/2019;18:00;0.44
30/01/2019;19:00;0.55
30/01/2019;20:00;0.64
30/01/2019;21:00;0.71
30/01/2019;22:00;0.73
30/01/2019;23:00;0.70
31/01/2019;00:00;0.64
31/01/2019;01:00;0.56
31/01/2019;02:00;0.53
31/01/2019;03:00;0.59
31/01/2019;04:00;0.66
31/01/2019;05:00;0.75
31/01/2019;06:00;0.81
31/01/2019;07:00;0.83
31/01/2019;08:00;0.83
31/01/2019;09:00;0.74
31/01/2019;10:00;0.60
31/01/2019;11:00;0.45
31/01/2019;12:00;0.30
31/01/2019;13:00;0.17
31/01/2019;14:00;0.07
31/01/2019;15:00;0.01
31/01/2019;16:00;0.03
31/01/2019;17:00;0.13
31/01/2019;18:00;0.28
31/01/2019;19:00;0.45
31/01/2019;20:00;0.61
31/01/2019;21:00;0.73
31/01/2019;22:00;0.81
31/01/2019;23:00;0.83
01/02/2019;00:00;0.80
01/02/2019;01:00;0.72
01/02/2019;02:00;0.69
01/02/2019;03:00;0.69
01/02/2019;04:00;0.74
01/02/2019;05:00;0.81
01/02/2019;06:00;0.90
01/02/2019;07:00;0.95
01/02/2019;08:00;0.97
01/02/2019;09:00;0.97
01/02/2019;10:00;0.91
01/02/2019;11:00;0.78
01/02/2019;12:00;0.61
01/02/2019;13:00;0.47
01/02/2019;14:00;0.35
01/02/2019;15:00;0.28
01/02/2019;16:00;0.28
01/02/2019;17:00;0.36
01/02/2019;18:00;0.53
01/02/2019;19:00;0.70
01/02/2019;20:00;0.84
01/02/2019;21:00;0.96
01/02/2019;22:00;1.07
01/02/2019;23:00;1.11
02/02/2019;00:00;1.09
02/02/2019;01:00;1.02
02/02/2019;02:00;0.94
02/02/2019;03:00;0.87
02/02/2019;04:00;0.80
02/02/2019;05:00;0.80
02/02/2019;06:00;0.93
02/02/2019;07:00;1.02
02/02/2019;08:00;1.10
02/02/2019;09:00;1.12
02/02/2019;10:00;1.09
02/02/2019;11:00;0.97
02/02/2019;12:00;0.79
02/02/2019;13:00;0.61
02/02/2019;14:00;0.46
02/02/2019;15:00;0.29
02/02/2019;16:00;0.17
02/02/2019;17:00;0.18
02/02/2019;18:00;0.34
02/02/2019;19:00;0.52
02/02/2019;20:00;0.73
02/02/2019;21:00;0.91
02/02/2019;22:00;1.05
02/02/2019;23:00;1.12
03/02/2019;00:00;1.12
03/02/2019;01:00;1.03
03/02/2019;02:00;0.92
03/02/2019;03:00;0.81
03/02/2019;04:00;0.80
03/02/2019;05:00;0.80
03/02/2019;06:00;0.91
03/02/2019;07:00;1.00
03/02/2019;08:00;1.08
03/02/2019;09:00;1.09
03/02/2019;10:00;1.00
03/02/2019;11:00;0.84
03/02/2019;12:00;0.68
03/02/2019;13:00;0.47
03/02/2019;14:00;0.26
03/02/2019;15:00;0.11
03/02/2019;16:00;0.03
03/02/2019;17:00;0.08
03/02/2019;18:00;0.23
03/02/2019;19:00;0.44
03/02/2019;20:00;0.62
03/02/2019;21:00;0.76
03/02/2019;22:00;0.83
03/02/2019;23:00;0.86
04/02/2019;00:00;0.83
04/02/2019;01:00;0.72
04/02/2019;02:00;0.58
04/02/2019;03:00;0.46
04/02/2019;04:00;0.37
04/02/2019;05:00;0.30
04/02/2019;06:00;0.32
04/02/2019;07:00;0.44
04/02/2019;08:00;0.57
04/02/2019;09:00;0.69
04/02/2019;10:00;0.75
04/02/2019;11:00;0.73
04/02/2019;12:00;0.62
04/02/2019;13:00;0.45
04/02/2019;14:00;0.26
04/02/2019;15:00;0.11
04/02/2019;16:00;0.00
04/02/2019;17:00;-0.03
04/02/2019;18:00;0.08
04/02/2019;19:00;0.26
04/02/2019;20:00;0.44
04/02/2019;21:00;0.61
04/02/2019;22:00;0.73
04/02/2019;23:00;0.80
05/02/2019;00:00;0.79
05/02/2019;01:00;0.69
05/02/2019;02:00;0.50
05/02/2019;03:00;0.32
05/02/2019;04:00;0.17
05/02/2019;05:00;0.09
05/02/2019;06:00;0.10
05/02/2019;07:00;0.23
05/02/2019;08:00;0.39
05/02/2019;09:00;0.56
05/02/2019;10:00;0.65
05/02/2019;11:00;0.70
05/02/2019;12:00;0.64
05/02/2019;13:00;0.50
05/02/2019;14:00;0.30
05/02/2019;15:00;0.12
05/02/2019;16:00;-0.03
05/02/2019;17:00;-0.13
05/02/2019;18:00;-0.14
05/02/2019;19:00;-0.02
05/02/2019;20:00;0.17
05/02/2019;21:00;0.35
05/02/2019;22:00;0.49
05/02/2019;23:00;0.57
06/02/2019;00:00;0.57
06/02/2019;01:00;0.47
06/02/2019;02:00;0.31
06/02/2019;03:00;0.17
06/02/2019;04:00;0.05
06/02/2019;05:00;0.00
06/02/2019;06:00;0.04
06/02/2019;07:00;0.19
06/02/2019;08:00;0.36
06/02/2019;09:00;0.54
06/02/2019;10:00;0.68
06/02/2019;11:00;0.77
06/02/2019;12:00;0.77
06/02/2019;13:00;0.69
06/02/2019;14:00;0.51
06/02/2019;15:00;0.33
06/02/2019;16:00;0.16
06/02/2019;17:00;0.04
06/02/2019;18:00;-0.01
06/02/2019;19:00;0.02
06/02/2019;20:00;0.15
06/02/2019;21:00;0.31
06/02/2019;22:00;0.43
06/02/2019;23:00;0.51
07/02/2019;00:00;0.53
07/02/2019;01:00;0.52
07/02/2019;02:00;0.43
07/02/2019;03:00;0.30
07/02/2019;04:00;0.22
07/02/2019;05:00;0.17
07/02/2019;06:00;0.17
07/02/2019;07:00;0.25
07/02/2019;08:00;0.38
07/02/2019;09:00;0.54
07/02/2019;10:00;0.66
07/02/2019;11:00;0.74
07/02/2019;12:00;0.76
07/02/2019;13:00;0.68
07/02/2019;14:00;0.53
07/02/2019;15:00;0.35
07/02/2019;16:00;0.17
07/02/2019;17:00;0.01
07/02/2019;18:00;-0.08
07/02/2019;19:00;-0.10
07/02/2019;20:00;0.00
07/02/2019;21:00;0.16
07/02/2019;22:00;0.33
07/02/2019;23:00;0.48
08/02/2019;00:00;0.58
08/02/2019;01:00;0.64
08/02/2019;02:00;0.63
08/02/2019;03:00;0.56
08/02/2019;04:00;0.43
08/02/2019;05:00;0.32
08/02/2019;06:00;0.25
08/02/2019;07:00;0.24
08/02/2019;08:00;0.32
08/02/2019;09:00;0.46
08/02/2019;10:00;0.60
08/02/2019;11:00;0.71
08/02/2019;12:00;0.75
08/02/2019;13:00;0.69
08/02/2019;14:00;0.55
08/02/2019;15:00;0.36
08/02/2019;16:00;0.17
08/02/2019;17:00;-0.02
08/02/2019;18:00;-0.14
08/02/2019;19:00;-0.18
08/02/2019;20:00;-0.09
08/02/2019;21:00;0.08
08/02/2019;22:00;0.27
08/02/2019;23:00;0.45
09/02/2019;00:00;0.60
09/02/2019;01:00;0.69
09/02/2019;02:00;0.72
09/02/2019;03:00;0.68
09/02/2019;04:00;0.55
09/02/2019;05:00;0.41
09/02/2019;06:00;0.31
09/02/2019;07:00;0.26
09/02/2019;08:00;0.27
09/02/2019;09:00;0.36
09/02/2019;10:00;0.49
09/02/2019;11:00;0.60
09/02/2019;12:00;0.65
09/02/2019;13:00;0.63
09/02/2019;14:00;0.52
09/02/2019;15:00;0.35
09/02/2019;16:00;0.17
09/02/2019;17:00;0.01
09/02/2019;18:00;-0.09
09/02/2019;19:00;-0.13
09/02/2019;20:00;-0.03
09/02/2019;21:00;0.14
09/02/2019;22:00;0.32
09/02/2019;23:00;0.50
10/02/2019;00:00;0.63
10/02/2019;01:00;0.72
10/02/2019;02:00;0.73
10/02/2019;03:00;0.70
10/02/2019;04:00;0.57
10/02/2019;05:00;0.43
10/02/2019;06:00;0.33
10/02/2019;07:00;0.25
10/02/2019;08:00;0.23
10/02/2019;09:00;0.25
10/02/2019;10:00;0.33
10/02/2019;11:00;0.42
10/02/2019;12:00;0.49
10/02/2019;13:00;0.51
10/02/2019;14:00;0.47
10/02/2019;15:00;0.36
10/02/2019;16:00;0.24
10/02/2019;17:00;0.14
10/02/2019;18:00;0.08
10/02/2019;19:00;0.10
10/02/2019;20:00;0.19
10/02/2019;21:00;0.35
10/02/2019;22:00;0.53
10/02/2019;23:00;0.69
11/02/2019;00:00;0.82
11/02/2019;01:00;0.87
11/02/2019;02:00;0.90
11/02/2019;03:00;0.84
11/02/2019;04:00;0.72
11/02/2019;05:00;0.58
11/02/2019;06:00;0.45
11/02/2019;07:00;0.36
11/02/2019;08:00;0.30
11/02/2019;09:00;0.25
11/02/2019;10:00;0.24
11/02/2019;11:00;0.22
11/02/2019;12:00;0.27
11/02/2019;13:00;0.32
11/02/2019;14:00;0.34
11/02/2019;15:00;0.31
11/02/2019;16:00;0.22
11/02/2019;17:00;0.15
11/02/2019;18:00;0.10
11/02/2019;19:00;0.08
11/02/2019;20:00;0.11
11/02/2019;21:00;0.19
11/02/2019;22:00;0.30
11/02/2019;23:00;0.37
12/02/2019;00:00;0.43
12/02/2019;01:00;0.51
12/02/2019;02:00;0.53
12/02/2019;03:00;0.53
12/02/2019;04:00;0.53
12/02/2019;05:00;0.47
12/02/2019;06:00;0.35
12/02/2019;07:00;0.22
12/02/2019;08:00;0.13
12/02/2019;09:00;0.05
12/02/2019;10:00;0.00
12/02/2019;11:00;0.01
12/02/2019;12:00;0.08
12/02/2019;13:00;0.15
12/02/2019;14:00;0.21
12/02/2019;15:00;0.28
12/02/2019;16:00;0.30
12/02/2019;17:00;0.28
12/02/2019;18:00;0.25
12/02/2019;19:00;0.20
12/02/2019;20:00;0.18
12/02/2019;21:00;0.17
12/02/2019;22:00;0.20
12/02/2019;23:00;0.29
13/02/2019;00:00;0.38
13/02/2019;01:00;0.46
13/02/2019;02:00;0.48
13/02/2019;03:00;0.47
13/02/2019;04:00;0.40